Change the Weather History Date:

Saturday, November 2, 2013

  Actual Average (KALS) Record (KALS)
Temperature  
Mean Temperature 30 °F 36 °F  
Max Temperature 37 °F 54 °F 68 °F (2008)
Min Temperature 23 °F 18 °F -21 °F (1991)
Degree Days  
Heating Degree Days 35 29  
Month to date heating degree days 57  
Since 1 July heating degree days 1167  
Cooling Degree Days 0 0  
Month to date cooling degree days 0  
Year to date cooling degree days 51  
Moisture  
Dew Point 4 °F    
Average Humidity 34    
Maximum Humidity 59    
Minimum Humidity 14    
Precipitation  
Precipitation 0.00 in 0.02 in 0.47 in (1990)
Month to date precipitation 0.04  
Year to date precipitation 6.58  
Snow  
Snow 0.00 in 0.10 in 1.00 in (1974)
Month to date snowfall 0.2  
Since 1 July snowfall 2.3  
Since 1 September snowfall 2.3  
Snow Depth -    
Sea Level Pressure  
Sea Level Pressure 30.39 in    
Wind  
Wind Speed 14 mph (SW)    
Max Wind Speed 25 mph    
Max Gust Speed 32 mph    
Visibility 10 miles    
Events Snow    
T = Trace of Precipitation, MM = Missing Value Source: NWS Daily Summary

Daily Weather History Graph

Daily Weather History Graph

Search for Another Location

Airport or City:

Trip Planner

Search our weather history database for the weather conditions in past years. The results will help you decide how hot, cold, wet, or windy it might be!

Date:

Astronomy

Nov. 02, 2013 Rise Set
Actual Time 7:33 AM MDT 6:07 PM MDT
Civil Twilight 7:06 AM MDT 6:34 PM MDT
Nautical Twilight 6:35 AM MDT 7:05 PM MDT
Astronomical Twilight 6:04 AM MDT 7:36 PM MDT
Moon 6:34 AM MDT (11/2) 5:40 PM MDT (11/2)
Length of Visible Light 11h 28m
Length of Day
10h 34m
Waning Crescent, 1% of the Moon is Illuminated
Nov 2
Waning Crescent
Nov 3
New
Nov 9
First Quarter
Nov 17
Full
Nov 25
Last Quarter

Hourly Weather History & Observations

Time (MDT) Temp. Windchill Dew Point Humidity Pressure Visibility Wind Dir Wind Speed Gust Speed Precip Events Conditions
12:08 AM 30.2 °F 20.2 °F -14.8 °F 14% 30.43 in 10.0 mi North 12.7 mph - N/A   Clear
12:28 AM 28.4 °F 22.2 °F -5.8 °F 23% 30.44 in 10.0 mi SSW 5.8 mph - N/A   Clear
12:48 AM 24.8 °F 20.5 °F 5.0 °F 43% 30.44 in 10.0 mi SSW 3.5 mph - N/A   Clear
1:08 AM 28.4 °F 24.6 °F -5.8 °F 23% 30.44 in 10.0 mi NW 3.5 mph - N/A   Clear
1:28 AM 26.6 °F 19.1 °F -0.4 °F 31% 30.44 in 10.0 mi SSW 6.9 mph - N/A   Clear
1:48 AM 28.4 °F 21.2 °F -5.8 °F 23% 30.44 in 10.0 mi SW 6.9 mph - N/A   Clear
2:08 AM 26.6 °F 21.2 °F -2.2 °F 29% 30.45 in 10.0 mi SW 4.6 mph 9.2 mph N/A   Clear
2:28 AM 23.0 °F 10.1 °F 10.4 °F 59% 30.45 in 10.0 mi SW 15.0 mph - N/A   Clear
2:48 AM 26.6 °F 18.2 °F -2.2 °F 29% 30.45 in 10.0 mi West 8.1 mph - N/A   Clear
3:08 AM 32.0 °F 24.2 °F -13.0 °F 14% 30.44 in 10.0 mi NW 9.2 mph - N/A   Clear
3:28 AM 30.2 °F 24.3 °F -14.8 °F 14% 30.44 in 10.0 mi WNW 5.8 mph - N/A   Clear
3:48 AM 30.2 °F 25.4 °F -14.8 °F 14% 30.44 in 10.0 mi WSW 4.6 mph - N/A   Clear
4:08 AM 30.2 °F 24.3 °F -13.0 °F 15% 30.44 in 10.0 mi SW 5.8 mph - N/A   Clear
4:28 AM 30.2 °F 21.3 °F -9.4 °F 18% 30.44 in 10.0 mi SSW 10.4 mph - N/A   Clear
4:48 AM 30.2 °F 19.3 °F -7.6 °F 19% 30.44 in 10.0 mi SW 15.0 mph - N/A   Clear
5:08 AM 28.4 °F 17.5 °F -7.6 °F 21% 30.44 in 10.0 mi SW 13.8 mph - N/A   Clear
5:28 AM 28.4 °F 18.5 °F -9.4 °F 19% 30.44 in 10.0 mi SSW 11.5 mph - N/A   Clear
5:48 AM 28.4 °F 17.0 °F -5.8 °F 23% 30.44 in 10.0 mi SW 15.0 mph - N/A   Clear
6:08 AM 28.4 °F 17.5 °F -2.2 °F 27% 30.44 in 10.0 mi SSW 13.8 mph - N/A   Clear
6:28 AM 28.4 °F 17.0 °F 1.4 °F 31% 30.44 in 10.0 mi SSW 15.0 mph - N/A   Clear
6:48 AM 26.6 °F 15.2 °F 3.2 °F 37% 30.44 in 10.0 mi SSW 13.8 mph - N/A   Clear
7:08 AM 26.6 °F 14.7 °F 3.2 °F 37% 30.43 in 10.0 mi SSW 15.0 mph - N/A   Clear
7:28 AM 26.6 °F 13.8 °F 3.2 °F 37% 30.44 in 10.0 mi SW 17.3 mph - N/A   Clear
7:48 AM 26.6 °F 13.4 °F 3.2 °F 37% 30.44 in 10.0 mi SW 18.4 mph - N/A   Clear
8:08 AM 28.4 °F 16.2 °F 3.2 °F 34% 30.44 in 10.0 mi SW 17.3 mph - N/A   Clear
8:28 AM 28.4 °F 15.8 °F 3.2 °F 34% 30.44 in 10.0 mi SW 18.4 mph - N/A   Clear
8:48 AM 30.2 °F 18.1 °F -0.4 °F 27% 30.45 in 10.0 mi SW 18.4 mph - N/A   Clear
9:08 AM 32.0 °F 21.2 °F 3.2 °F 30% 30.46 in 10.0 mi SW 16.1 mph 20.7 mph N/A   Clear
9:28 AM 32.0 °F 21.2 °F 5.0 °F 32% 30.47 in 10.0 mi SW 16.1 mph 19.6 mph N/A   Clear
9:46 AM 32.0 °F 20.5 °F 5.0 °F 32% 30.47 in 10.0 mi SW 18.4 mph - N/A   Clear
10:08 AM 32.0 °F 21.6 °F 5.0 °F 32% 30.47 in 10.0 mi SSW 15.0 mph - N/A   Clear
10:28 AM 33.8 °F 23.9 °F 5.0 °F 30% 30.47 in 10.0 mi SW 15.0 mph 19.6 mph N/A   Clear
10:48 AM 33.8 °F 24.8 °F 5.0 °F 30% 30.47 in 10.0 mi SSW 12.7 mph 20.7 mph N/A   Clear
11:08 AM 33.8 °F 23.2 °F 6.8 °F 32% 30.47 in 10.0 mi SSW 17.3 mph 23.0 mph N/A Snow Light Snow
11:28 AM 35.6 °F 25.5 °F 5.0 °F 28% 30.46 in 10.0 mi SW 17.3 mph 24.2 mph N/A   Clear
11:48 AM 35.6 °F 25.9 °F 6.8 °F 30% 30.46 in 10.0 mi SSW 16.1 mph 24.2 mph N/A   Clear
12:08 PM 35.6 °F 25.2 °F 8.6 °F 33% 30.45 in 10.0 mi SW 18.4 mph 27.6 mph N/A   Clear
12:28 PM 35.6 °F 26.2 °F 10.4 °F 35% 30.45 in 10.0 mi SSW 15.0 mph 27.6 mph N/A   Clear
12:48 PM 35.6 °F 25.2 °F 8.6 °F 33% 30.45 in 10.0 mi SSW 18.4 mph 24.2 mph N/A   Clear
1:08 PM 35.6 °F 24.5 °F 8.6 °F 33% 30.44 in 10.0 mi SW 20.7 mph 24.2 mph N/A   Clear
1:28 PM 35.6 °F 25.5 °F 8.6 °F 33% 30.42 in 10.0 mi SSW 17.3 mph 25.3 mph N/A   Clear
1:48 PM 35.6 °F 24.8 °F 6.8 °F 30% 30.41 in 10.0 mi SW 19.6 mph 28.8 mph N/A   Clear
2:08 PM 37.4 °F 27.2 °F 8.6 °F 30% 30.40 in 10.0 mi SSW 19.6 mph 25.3 mph N/A   Clear
2:28 PM 37.4 °F 27.8 °F 5.0 °F 26% 30.39 in 10.0 mi SW 17.3 mph 25.3 mph N/A   Clear
2:48 PM 37.4 °F 26.9 °F 3.2 °F 24% 30.38 in 10.0 mi SW 20.7 mph 28.8 mph N/A   Clear
3:08 PM 37.4 °F 27.2 °F 3.2 °F 24% 30.38 in 10.0 mi SW 19.6 mph 28.8 mph N/A   Clear
3:28 PM 37.4 °F 26.9 °F 3.2 °F 24% 30.37 in 10.0 mi SSW 20.7 mph 31.1 mph N/A   Clear
3:48 PM 37.4 °F 27.5 °F 3.2 °F 24% 30.37 in 10.0 mi SW 18.4 mph 29.9 mph N/A   Clear
4:08 PM 35.6 °F 24.0 °F 5.0 °F 28% 30.36 in 10.0 mi SSW 23.0 mph 32.2 mph N/A   Clear
4:28 PM 35.6 °F 25.2 °F 8.6 °F 33% 30.36 in 10.0 mi SSW 18.4 mph 31.1 mph N/A   Clear
4:48 PM 35.6 °F 24.2 °F 8.6 °F 33% 30.36 in 10.0 mi SSW 21.9 mph 31.1 mph N/A   Clear
5:08 PM 35.6 °F 24.0 °F 8.6 °F 33% 30.35 in 10.0 mi SSW 23.0 mph 32.2 mph N/A   Clear
5:28 PM 33.8 °F 21.9 °F 8.6 °F 35% 30.35 in 10.0 mi SW 21.9 mph 32.2 mph N/A   Clear
5:48 PM 32.0 °F 20.1 °F 10.4 °F 41% 30.34 in 10.0 mi SW 19.6 mph 27.6 mph N/A   Clear
6:08 PM 32.0 °F 20.1 °F 10.4 °F 41% 30.34 in 10.0 mi SW 19.6 mph 26.5 mph N/A   Clear
6:28 PM 32.0 °F 20.8 °F 8.6 °F 38% 30.33 in 10.0 mi SW 17.3 mph 23.0 mph N/A   Clear
6:48 PM 32.0 °F 20.8 °F 8.6 °F 38% 30.32 in 10.0 mi SW 17.3 mph 24.2 mph N/A   Clear
7:08 PM 30.2 °F 18.1 °F 10.4 °F 44% 30.32 in 10.0 mi SW 18.4 mph 27.6 mph N/A   Clear
7:28 PM 30.2 °F 18.9 °F 14.0 °F 51% 30.32 in 10.0 mi SW 16.1 mph 24.2 mph N/A   Clear
7:48 PM 30.2 °F 18.1 °F 14.0 °F 51% 30.31 in 10.0 mi SW 18.4 mph 24.2 mph N/A   Clear
8:08 PM 30.2 °F 17.8 °F 14.0 °F 51% 30.30 in 10.0 mi SW 19.6 mph - N/A   Clear
8:28 PM 30.2 °F 17.1 °F 14.0 °F 51% 30.30 in 10.0 mi SW 21.9 mph - N/A   Clear
8:48 PM 30.2 °F 17.1 °F 15.8 °F 55% 30.30 in 10.0 mi SW 21.9 mph 27.6 mph N/A   Clear
9:08 PM 30.2 °F 17.8 °F 15.8 °F 55% 30.29 in 10.0 mi SW 19.6 mph 27.6 mph N/A   Clear
9:28 PM 30.2 °F 17.1 °F 15.8 °F 55% 30.29 in 10.0 mi SW 21.9 mph 26.5 mph N/A   Clear
9:48 PM 30.2 °F 17.4 °F 15.8 °F 55% 30.29 in 10.0 mi SW 20.7 mph 27.6 mph N/A   Clear
10:08 PM 30.2 °F 16.8 °F 15.8 °F 55% 30.28 in 10.0 mi SW 23.0 mph 28.8 mph N/A   Clear
10:28 PM 30.2 °F 17.1 °F 15.8 °F 55% 30.28 in 10.0 mi SW 21.9 mph 32.2 mph N/A   Clear
10:48 PM 28.4 °F 15.1 °F 14.0 °F 55% 30.27 in 10.0 mi SW 20.7 mph 28.8 mph N/A   Clear
11:08 PM 28.4 °F 13.8 °F 14.0 °F 55% 30.26 in 10.0 mi SW 25.3 mph 28.8 mph N/A   Clear
11:28 PM 28.4 °F 14.4 °F 15.8 °F 59% 30.26 in 10.0 mi SW 23.0 mph 27.6 mph N/A   Clear
11:48 PM 28.4 °F 15.4 °F 15.8 °F 59% 30.24 in 10.0 mi SW 19.6 mph 25.3 mph N/A   Clear